N6GIW Weather Reports


time (UTC)temp
F
wind
direction
speed
knots
gust
knots
rain 1hr
in
rain 24hr
in
rain mn
in
humidity
%
barometer
mb
20260507190004 84 75 1.7 7.8 0.00 0.00 0.00 15 1024.5
20260507185502 84 24 3.5 7.8 0.00 0.00 0.00 16 1024.5
20260507185003 83 34 1.7 7.0 0.00 0.00 0.00 17 1024.5
20260507184502 83 286 4.3 8.7 0.00 0.00 0.00 16 1024.5
20260507184002 84 344 3.5 8.7 0.00 0.00 0.00 17 1024.5
20260507183502 84 275 1.7 7.0 0.00 0.00 0.00 17 1024.5
20260507182503 83 14 5.2 10.4 0.00 0.00 0.00 17 1024.6
20260507182003 83 5 7.0 10.4 0.00 0.00 0.00 17 1024.6
20260507181503 83 52 2.6 7.0 0.00 0.00 0.00 18 1024.6
20260507181003 83 355 2.6 8.7 0.00 0.00 0.00 18 1024.6
20260507180503 83 31 4.3 10.4 0.00 0.00 0.00 18 1024.7
20260507180003 83 26 2.6 7.8 0.00 0.00 0.00 18 1024.6
20260507175503 82 51 3.5 12.2 0.00 0.00 0.00 18 1024.7
20260507175003 83 29 3.5 10.4 0.00 0.00 0.00 18 1024.8
20260507174503 83 16 6.1 10.4 0.00 0.00 0.00 18 1024.7
20260507174003 82 7 5.2 10.4 0.00 0.00 0.00 18 1024.9
20260507173503 82 45 5.2 10.4 0.00 0.00 0.00 19 1025.0
20260507173002 82 22 7.8 10.4 0.00 0.00 0.00 19 1025.0
20260507172503 82 40 1.7 8.7 0.00 0.00 0.00 19 1024.9
20260507172003 82 43 3.5 10.4 0.00 0.00 0.00 19 1024.7
20260507171504 81 323 3.5 10.4 0.00 0.00 0.00 18 1024.8
20260507171003 81 338 5.2 7.8 0.00 0.00 0.00 19 1024.8
20260507170502 81 336 3.5 10.4 0.00 0.00 0.00 19 1024.7
20260507164503 81 335 5.2 7.8 0.00 0.00 0.00 19 1024.8
20260507164003 81 5 4.3 8.7 0.00 0.00 0.00 19 1024.9
20260507163504 81 18 2.6 10.4 0.00 0.00 0.00 19 1024.9
20260507163003 80 331 5.2 10.4 0.00 0.00 0.00 19 1024.9
20260507162503 81 343 2.6 8.7 0.00 0.00 0.00 19 1024.8
20260507162003 81 342 4.3 13.0 0.00 0.00 0.00 19 1024.7
20260507161503 80 344 6.1 10.4 0.00 0.00 0.00 19 1024.8
20260507161003 80 19 7.8 10.4 0.00 0.00 0.00 19 1024.8
20260507160503 80 9 5.2 10.4 0.00 0.00 0.00 20 1024.8
20260507160003 80 9 7.8 11.3 0.00 0.00 0.00 20 1024.8
20260507155503 80 320 5.2 8.7 0.00 0.00 0.00 20 1024.8
20260507155003 79 349 5.2 10.4 0.00 0.00 0.00 20 1024.7
20260507154004 77 24 2.6 7.8 0.00 0.00 0.00 23 1024.6
20260507153504 76 25 2.6 5.2 0.00 0.00 0.00 25 1024.7
20260507153003 75 10 2.6 4.3 0.00 0.00 0.00 26 1024.8
20260507152503 74 16 1.7 4.3 0.00 0.00 0.00 26 1024.9
20260507152003 74 38 1.7 4.3 0.00 0.00 0.00 27 1024.9
20260507151503 73 20 1.7 5.2 0.00 0.00 0.00 27 1024.8
20260507151003 73 22 1.7 2.6 0.00 0.00 0.00 27 1024.9
20260507150503 72 19 0.9 2.6 0.00 0.00 0.00 28 1024.9
20260507150003 71 38 0.9 2.6 0.00 0.00 0.00 28 1024.9
20260507145504 71 30 0.9 2.6 0.00 0.00 0.00 28 1024.9
20260507145003 71 17 0.9 2.6 0.00 0.00 0.00 28 1025.0
20260507144503 71 28 0.0 1.7 0.00 0.00 0.00 27 1025.0
20260507144003 72 36 0.9 2.6 0.00 0.00 0.00 27 1025.0
20260507143503 72 42 1.7 2.6 0.00 0.00 0.00 26 1025.0
20260507143003 73 3 0.9 2.6 0.00 0.00 0.00 26 1025.0
20260507142504 72 249 0.0 0.0 0.00 0.00 0.00 26 1024.6
20260507142003 72 248 0.0 0.9 0.00 0.00 0.00 26 1024.6
20260507141502 71 248 0.0 0.0 0.00 0.00 0.00 27 1024.6
20260507140502 69 248 0.9 1.7 0.00 0.00 0.00 29 1024.5
20260507140004 67 243 0.0 0.9 0.00 0.00 0.00 29 1024.5
20260507135503 66 242 0.0 1.7 0.00 0.00 0.00 30 1024.5
20260507135003 65 243 0.9 1.7 0.00 0.00 0.00 31 1024.5
20260507134504 64 242 0.0 0.0 0.00 0.00 0.00 32 1024.5
20260507134002 63 244 0.0 0.0 0.00 0.00 0.00 33 1024.5
20260507133503 61 252 0.0 0.0 0.00 0.00 0.00 36 1024.5
20260507133004 59 251 0.0 0.0 0.00 0.00 0.00 36 1024.4
20260507132503 59 251 0.0 0.0 0.00 0.00 0.00 36 1024.2
20260507131002 59 251 0.0 0.0 0.00 0.00 0.00 35 1024.2
20260507130503 59 251 0.0 0.0 0.00 0.00 0.00 35 1024.0
20260507130004 59 251 0.0 0.0 0.00 0.00 0.00 35 1023.9
20260507125503 60 251 0.0 0.0 0.00 0.00 0.00 34 1024.0
20260507125004 60 251 0.0 0.0 0.00 0.00 0.00 34 1024.0
20260507124503 61 251 0.0 0.0 0.00 0.00 0.00 34 1024.0
20260507124003 61 250 0.0 0.0 0.00 0.00 0.00 35 1024.0
20260507123503 60 250 0.0 0.0 0.00 0.00 0.00 35 1024.0
20260507123004 60 250 0.0 0.0 0.00 0.00 0.00 35 1023.9
20260507122503 60 252 0.0 0.0 0.00 0.00 0.00 35 1023.9
20260507122003 61 253 0.0 0.0 0.00 0.00 0.00 34 1024.0
20260507121503 61 257 0.0 0.0 0.00 0.00 0.00 35 1024.0
20260507121003 61 257 0.0 0.0 0.00 0.00 0.00 34 1024.0
20260507120503 61 257 0.0 0.0 0.00 0.00 0.00 34 1024.1
20260507120002 61 257 0.0 0.0 0.00 0.00 0.00 34 1024.1
20260507115503 61 257 0.0 0.0 0.00 0.00 0.00 36 1024.1
20260507115004 60 225 0.0 0.0 0.00 0.00 0.00 35 1024.1
20260507114003 60 224 0.0 0.0 0.00 0.00 0.00 35 1024.1
20260507113004 61 224 0.0 0.0 0.00 0.00 0.00 34 1024.3
20260507112503 61 224 0.0 0.0 0.00 0.00 0.00 34 1024.0
20260507112003 62 224 0.0 0.0 0.00 0.00 0.00 34 1024.0
20260507111503 61 224 0.0 0.0 0.00 0.00 0.00 35 1024.0
20260507110503 60 224 0.0 0.0 0.00 0.00 0.00 34 1024.0
20260507110003 60 224 0.0 0.0 0.00 0.00 0.00 35 1023.9
20260507105502 60 224 0.0 0.0 0.00 0.00 0.00 35 1023.9
20260507105003 60 224 0.0 0.0 0.00 0.00 0.00 35 1024.0
20260507104003 60 246 0.0 0.0 0.00 0.00 0.00 35 1024.0
20260507103503 59 246 0.0 0.0 0.00 0.00 0.00 35 1024.1
20260507103003 60 267 0.0 0.0 0.00 0.00 0.00 34 1024.0
20260507102503 60 268 0.0 0.0 0.00 0.00 0.00 34 1024.0
20260507102003 60 278 0.0 0.0 0.00 0.00 0.00 34 1023.9
20260507101503 60 281 0.0 0.0 0.00 0.00 0.00 34 1024.0
20260507101003 59 284 0.0 0.0 0.00 0.00 0.00 35 1024.0
20260507100503 59 288 0.0 0.0 0.00 0.00 0.00 36 1024.0
20260507100005 58 290 0.0 0.0 0.00 0.00 0.00 36 1024.1
20260507095503 58 240 0.0 0.0 0.00 0.00 0.00 36 1024.1
20260507095004 58 240 0.0 0.0 0.00 0.00 0.00 35 1024.1
20260507094503 58 240 0.0 0.0 0.00 0.00 0.00 35 1024.3
20260507093503 59 240 0.0 0.0 0.00 0.00 0.00 35 1024.2
20260507093003 59 242 0.0 0.0 0.00 0.00 0.00 34 1024.3
20260507092003 61 245 0.0 0.0 0.00 0.00 0.00 33 1024.1
20260507091503 61 246 0.0 0.0 0.00 0.00 0.00 33 1024.2
20260507091003 62 246 0.0 0.0 0.00 0.00 0.00 33 1024.3
20260507090503 62 246 0.0 0.0 0.00 0.00 0.00 33 1024.2
20260507090005 62 246 0.0 0.0 0.00 0.00 0.00 33 1024.3
20260507085503 61 246 0.0 0.0 0.00 0.00 0.00 34 1024.3
20260507085003 61 246 0.0 0.0 0.00 0.00 0.00 33 1024.3
20260507084503 61 242 0.0 0.0 0.00 0.00 0.00 34 1024.3
20260507084004 61 238 0.0 0.0 0.00 0.00 0.00 34 1024.3
20260507083503 61 215 0.0 0.0 0.00 0.00 0.00 34 1024.3
20260507083004 61 232 0.0 0.0 0.00 0.00 0.00 34 1024.3
20260507082003 60 247 0.0 0.0 0.00 0.00 0.00 34 1024.4
20260507081503 61 248 0.0 0.0 0.00 0.00 0.00 34 1024.4
20260507081003 61 239 0.0 0.0 0.00 0.00 0.00 34 1024.4
20260507080502 61 245 0.0 0.0 0.00 0.00 0.00 34 1024.5
20260507080004 61 232 0.0 0.0 0.00 0.00 0.00 34 1024.5
20260507075503 61 239 0.0 0.0 0.00 0.00 0.00 34 1024.4
20260507075003 61 239 0.0 0.0 0.00 0.00 0.00 33 1024.5
20260507074003 61 247 0.0 0.0 0.00 0.00 0.00 33 1024.4
20260507073503 61 239 0.0 0.0 0.00 0.00 0.00 34 1024.6
20260507073003 61 233 0.0 0.0 0.00 0.00 0.00 33 1024.6
20260507072503 61 243 0.0 0.0 0.00 0.00 0.00 33 1024.5
20260507072003 62 240 0.0 0.0 0.00 0.00 0.00 33 1024.6
20260507071003 62 241 0.0 0.0 0.00 0.00 0.00 32 1024.6
20260507070503 63 240 0.0 0.0 0.00 0.00 0.00 32 1024.6
20260507064503 64 229 0.0 0.0 0.00 0.00 0.00 31 1024.5
20260507064003 64 232 0.0 0.0 0.00 0.00 0.00 31 1024.6
20260507063503 64 238 0.0 0.0 0.00 0.00 0.00 31 1024.6
20260507063004 64 240 0.0 0.0 0.00 0.00 0.00 31 1024.7
20260507062504 64 228 0.0 0.0 0.00 0.00 0.00 31 1024.4
20260507062003 64 231 0.0 0.0 0.00 0.00 0.00 32 1024.4
20260507061503 64 233 0.0 0.0 0.00 0.00 0.00 34 1024.4
20260507061003 64 234 0.0 0.0 0.00 0.00 0.00 33 1024.3
20260507060503 64 237 0.0 0.0 0.00 0.00 0.00 31 1024.3
20260507055503 64 231 0.0 0.0 0.00 0.00 0.00 31 1024.3
20260507055003 64 233 0.0 0.0 0.00 0.00 0.00 32 1024.3
20260507054504 64 236 0.0 0.0 0.00 0.00 0.00 32 1024.3
20260507054004 65 236 0.0 0.0 0.00 0.00 0.00 32 1024.3
20260507053503 65 237 0.0 0.0 0.00 0.00 0.00 33 1024.3
20260507052502 66 231 0.0 0.0 0.00 0.00 0.00 36 1024.3
20260507052003 66 232 0.0 0.0 0.00 0.00 0.00 37 1024.4
20260507051502 66 231 0.0 0.0 0.00 0.00 0.00 37 1024.4
20260507051002 67 228 0.0 0.0 0.00 0.00 0.00 38 1024.4
20260507050503 67 234 0.0 0.0 0.00 0.00 0.00 38 1024.3
20260507050003 67 229 0.0 0.0 0.00 0.00 0.00 38 1024.4
20260507045503 67 235 0.0 0.0 0.00 0.00 0.00 39 1024.3
20260507045004 67 236 0.0 0.0 0.00 0.00 0.00 38 1024.3
20260507044503 67 224 0.0 0.0 0.00 0.00 0.00 38 1024.4
20260507044004 67 227 0.0 0.0 0.00 0.00 0.00 38 1024.3
20260507043504 67 221 0.0 0.0 0.00 0.00 0.00 38 1024.4
20260507043004 67 227 0.0 0.0 0.00 0.00 0.00 38 1024.4
20260507042503 68 234 0.0 0.0 0.00 0.00 0.00 38 1024.1
20260507042004 68 232 0.0 0.0 0.00 0.00 0.00 38 1024.1
20260507041502 68 227 0.0 0.0 0.00 0.00 0.00 38 1024.1
20260507041003 68 233 0.0 0.0 0.00 0.00 0.00 38 1024.0
20260507035503 69 220 0.0 0.0 0.00 0.00 0.00 36 1024.0
20260507035004 69 220 0.0 0.0 0.00 0.00 0.00 36 1023.9
20260507034505 69 235 0.0 0.0 0.00 0.00 0.00 36 1023.9
20260507033502 69 233 0.0 0.0 0.00 0.00 0.00 36 1023.8
20260507033003 68 221 0.0 0.0 0.00 0.00 0.00 35 1023.7
20260507032517 67 219 0.0 0.0 0.00 0.00 0.00 33 1023.7
20260507032035 67 240 0.0 0.0 0.00 0.00 0.00 31 1023.6
20260507031504 68 34 0.0 0.0 0.00 0.00 0.00 30 1023.5
20260507031003 69 34 0.0 0.0 0.00 0.00 0.00 25 1023.5
20260507030503 70 34 0.0 0.0 0.00 0.00 0.00 25 1023.5
20260507030004 71 34 0.0 0.0 0.00 0.00 0.00 25 1023.4
20260507025503 71 34 0.0 0.0 0.00 0.00 0.00 24 1023.4
20260507025003 72 34 0.0 0.0 0.00 0.00 0.00 24 1023.3
20260507024503 72 34 0.0 0.0 0.00 0.00 0.00 24 1023.3
20260507024003 73 35 0.0 0.0 0.00 0.00 0.00 23 1023.2
20260507023503 74 35 0.0 0.0 0.00 0.00 0.00 23 1023.2
20260507023003 74 36 0.0 0.0 0.00 0.00 0.00 23 1023.2
20260507022503 75 32 0.0 0.0 0.00 0.00 0.00 23 1023.1
20260507022003 76 34 0.9 2.6 0.00 0.00 0.00 23 1023.1
20260507021503 76 26 1.7 5.2 0.00 0.00 0.00 22 1023.2
20260507021003 76 42 2.6 6.1 0.00 0.00 0.00 22 1023.1
20260507020503 77 28 2.6 6.1 0.00 0.00 0.00 21 1023.1
20260507020003 77 26 4.3 7.0 0.00 0.00 0.00 20 1023.2
20260507015503 77 358 2.6 5.2 0.00 0.00 0.00 20 1023.2
20260507015003 77 4 2.6 6.1 0.00 0.00 0.00 20 1023.1
20260507014503 77 39 2.6 7.0 0.00 0.00 0.00 20 1023.1
20260507014003 78 30 4.3 7.0 0.00 0.00 0.00 20 1023.1
20260507013503 78 14 1.7 2.6 0.00 0.00 0.00 21 1023.2
20260507013003 78 324 4.3 7.8 0.00 0.00 0.00 21 1023.2
20260507012503 78 320 4.3 8.7 0.00 0.00 0.00 22 1023.0
20260507012003 78 20 4.3 8.7 0.00 0.00 0.00 22 1023.0
20260507010502 78 44 2.6 6.1 0.00 0.00 0.00 23 1023.0
20260507010004 78 19 6.1 8.7 0.00 0.00 0.00 22 1022.9
20260507005503 79 45 3.5 8.7 0.00 0.00 0.00 23 1023.0
20260507005003 79 357 2.6 4.3 0.00 0.00 0.00 22 1023.1
20260507004003 78 19 4.3 10.4 0.00 0.00 0.00 22 1023.0
20260507003504 79 6 4.3 10.4 0.00 0.00 0.00 22 1022.9
20260507003004 78 17 5.2 8.7 0.00 0.00 0.00 21 1023.0
20260507002503 79 32 5.2 8.7 0.00 0.00 0.00 21 1023.0
20260507002003 79 37 4.3 12.2 0.00 0.00 0.00 21 1022.9
20260507001503 79 35 4.3 12.2 0.00 0.00 0.00 20 1022.8
20260507001003 78 46 2.6 10.4 0.00 0.00 0.00 21 1023.0
20260507000505 79 1 7.8 12.2 0.00 0.00 0.00 22 1022.9
20260507000004 79 19 4.3 11.3 0.00 0.00 0.00 21 1022.9
20260506234503 80 63 3.5 7.8 0.00 0.00 0.00 21 1022.8
20260506233503 80 83 2.6 10.4 0.00 0.00 0.00 21 1022.9
20260506233003 79 37 2.6 8.7 0.00 0.00 0.00 21 1023.0
20260506232504 79 67 2.6 12.2 0.00 0.00 0.00 22 1022.9
20260506231503 79 33 7.8 13.0 0.00 0.00 0.00 22 1022.9
20260506231003 80 33 5.2 11.3 0.00 0.00 0.00 21 1022.9
20260506230003 79 343 2.6 7.0 0.00 0.00 0.00 23 1022.9
20260506225503 79 18 3.5 7.0 0.00 0.00 0.00 23 1023.0
20260506225003 79 45 4.3 10.4 0.00 0.00 0.00 22 1023.0
20260506224503 79 24 5.2 10.4 0.00 0.00 0.00 22 1023.1
20260506224003 79 39 4.3 8.7 0.00 0.00 0.00 22 1023.0
20260506223504 79 16 6.1 10.4 0.00 0.00 0.00 23 1023.1
20260506223003 79 43 6.1 11.3 0.00 0.00 0.00 23 1023.2
20260506222002 79 22 5.2 12.2 0.00 0.00 0.00 25 1023.4
20260506221504 79 27 6.1 13.9 0.00 0.00 0.00 24 1023.4
20260506221003 78 268 1.7 7.8 0.00 0.00 0.00 25 1023.5
20260506220503 79 338 6.1 10.4 0.00 0.00 0.00 25 1023.6
20260506220003 79 67 4.3 8.7 0.00 0.00 0.00 25 1023.7
20260506215504 78 30 6.1 10.4 0.00 0.00 0.00 25 1023.8
20260506214503 78 344 4.3 8.7 0.00 0.00 0.00 25 1024.0
20260506214003 78 60 2.6 8.7 0.00 0.00 0.00 25 1024.0
20260506213503 78 35 4.3 8.7 0.00 0.00 0.00 25 1024.1
20260506213004 79 344 2.6 7.8 0.00 0.00 0.00 25 1024.1
20260506212504 78 49 4.3 33.0 0.00 0.00 0.00 25 1023.8
20260506212003 77 307 4.3 10.4 0.00 0.00 0.00 26 1023.9
20260506211503 77 21 3.5 7.0 0.00 0.00 0.00 26 1024.0
20260506211003 77 38 3.5 10.4 0.00 0.00 0.00 26 1024.1
20260506210503 78 352 2.6 10.4 0.00 0.00 0.00 26 1024.0
20260506210003 78 49 4.3 7.8 0.00 0.00 0.00 26 1024.0
20260506205503 78 103 2.6 6.1 0.00 0.00 0.00 26 1024.1
20260506205005 77 103 3.5 7.0 0.00 0.00 0.00 27 1024.2
20260506204504 77 75 1.7 6.1 0.00 0.00 0.00 27 1024.2
20260506203503 76 31 0.9 4.3 0.00 0.00 0.00 27 1024.4
20260506203003 76 60 2.6 8.7 0.00 0.00 0.00 28 1024.4
20260506202503 75 65 2.6 7.8 0.00 0.00 0.00 28 1024.2
20260506202003 74 92 1.7 10.4 0.00 0.00 0.00 28 1024.4
20260506201504 74 14 5.2 11.3 0.00 0.00 0.00 28 1024.5
20260506201004 74 9 6.1 10.4 0.00 0.00 0.00 29 1024.5
20260506200503 75 305 5.2 10.4 0.00 0.00 0.00 28 1024.6
20260506200003 75 336 8.7 12.2 0.00 0.00 0.00 28 1024.6
20260506195504 75 13 3.5 11.3 0.00 0.00 0.00 29 1024.5
20260506194503 74 14 8.7 13.9 0.00 0.00 0.00 29 1024.6
20260506194003 75 20 8.7 12.2 0.00 0.00 0.00 29 1024.4
20260506193503 74 42 4.3 10.4 0.00 0.00 0.00 29 1024.5
20260506193004 74 33 6.1 12.2 0.00 0.00 0.00 30 1024.5
20260506192003 74 34 4.3 10.4 0.00 0.00 0.00 28 1024.6
20260506191503 74 75 4.3 8.7 0.00 0.00 0.00 29 1024.6
20260506191003 73 10 6.1 10.4 0.00 0.00 0.00 28 1024.6
20260506190503 74 332 2.6 7.8 0.00 0.00 0.00 28 1024.8